Regional Weather Roundup
Issued by NWS

Home | Current Version | Previous Version | Text Only | Print | Product List | Glossary Off
Versions: 1 2 3 4 5 6 7 8 9 10 11 12 13 14 15 16 17 18 19 20 21 22 23 24 25 26 27 28 29 30 31 32 33 34 35 36 37 38 39 40 41 42 43 44 45 46 47 48 49 50

000
ASUS43 KOAX 300702
RWRNE

WEATHER ROUNDUP FOR NEBRASKA
NATIONAL WEATHER SERVICE OMAHA NE
200 AM CDT TUE MAY 30 2017

NOTES: SATELLITE DATA IS BEING USED TO AUGMENT CLOUD COVER ABOVE
       12000 FEET.
       "FAIR" INDICATES FEW OR NO CLOUDS BELOW 12,000 FEET WITH NO
       SIGNIFICANT WEATHER AND/OR OBSTRUCTIONS TO VISIBILITY.

  * THESE STATIONS DO NOT REPORT WEATHER SUCH AS RAIN...SNOW OR FOG.

NEZ001>004-019>022-054>056-300800-
NEBRASKA PANHANDLE

CITY           SKY/WX    TMP DP  RH WIND       PRES   REMARKS
SCOTTSBLUFF    CLEAR     44  37  76 NW3       30.17F
ALLIANCE       CLEAR     36  33  89 W7        30.16S WCI  30
CHADRON        CLEAR     42  39  89 W8        30.14F
GORDON         FAIR      41  35  80 W3        30.14S
KIMBALL        PTCLDY    45  42  87 W5        30.21F
SIDNEY         CLOUDY    40  37  89 NW6       30.19F
$$

NEZ057>060-069>072-079>082-300800-
SOUTHWEST NEBRASKA

CITY           SKY/WX    TMP DP  RH WIND       PRES   REMARKS
NORTH PLATTE   CLEAR     41  38  89 CALM      30.13S
IMPERIAL       MOCLDY    56  46  69 W10       30.15F
LEXINGTON      CLEAR     48  41  77 NW6       30.12R
MCCOOK         CLEAR     51  45  79 SW7       30.12F
OGALLALA       CLEAR     46  38  74 CALM      30.15S
$$

NEZ005>010-023>029-035>040-094-300800-
NORTH CENTRAL NEBRASKA

CITY           SKY/WX    TMP DP  RH WIND       PRES   REMARKS
VALENTINE      CLEAR     44  37  76 SW9       30.10R
AINSWORTH      CLEAR     47  40  75 W6        30.10S
BROKEN BOW     CLEAR     44  38  79 CALM      30.10S
O`NEILL        CLEAR     50  39  67 W5        30.07S
ORD            PTCLDY    44  37  76 CALM      30.08R
THEDFORD       CLEAR     45  38  78 CALM      30.13S
$$

NEZ041-046>049-061>064-073>077-083>087-300800-
SOUTH CENTRAL NEBRASKA

CITY           SKY/WX    TMP DP  RH WIND       PRES   REMARKS
GRAND ISLAND   CLEAR     52  42  69 W3        30.09S
AURORA         CLEAR     50  40  68 SW5       30.08S
HASTINGS       CLEAR     53  42  66 CALM      30.10S
HEBRON         CLEAR     52  46  80 CALM      30.08S
HOLDREGE       CLEAR     49  41  74 CALM      30.11S
KEARNEY *      CLEAR     54  39  58 CALM      30.11S
YORK           CLEAR     50  41  71 CALM      30.08S
$$

NEZ011>018-030>034-042>045-300800-
NORTHEAST NEBRASKA

CITY           SKY/WX    TMP DP  RH WIND       PRES   REMARKS
NORFOLK        CLEAR     44  40  85 SW7       30.04S
ALBION         CLEAR     43  38  84 CALM      30.07S
BLAIR          CLEAR     56  42  59 CALM      30.04S
FREMONT        CLEAR     52  46  79 NW3       30.05S
TEKAMAH        PTCLDY    51  41  68 CALM      30.03S
WAYNE          MOCLDY    48  43  84 S3        30.03F
$$

NEZ050>053-065>068-078-088>093-300800-
SOUTHEAST NEBRASKA

CITY           SKY/WX    TMP DP  RH WIND       PRES   REMARKS
LINCOLN        CLEAR     50  44  80 CALM      30.07S
OMAHA EPPLEY   PTCLDY    54  45  71 SE5       30.04S
BEATRICE       CLEAR     51  46  84 CALM      30.07S
NEBRASKA CITY  CLEAR     56  39  53 W3        30.05S
PLATTSMOUTH    CLEAR     57  42  56 SW3       30.05S
$$

NEZ044-045-051>053-067-300800-
OMAHA AREA

CITY           SKY/WX    TMP DP  RH WIND       PRES   REMARKS
OMAHA EPPLEY   PTCLDY    54  45  71 SE5       30.04S
BLAIR          CLEAR     56  42  59 CALM      30.04S
FREMONT        CLEAR     52  46  79 NW3       30.05S
MILLARD        CLEAR     53  49  87 CALM      30.04S
OFFUTT AFB     CLEAR     47  45  93 CALM      30.03S
PLATTSMOUTH    CLEAR     57  42  56 SW3       30.05S
WAHOO          FAIR      51  41  67 SW6       30.05S
$$



USA.gov is the U.S. government's official web portal to all federal, state and local government web resources and services.